FW8640 Weather Reports


Display with metric or nautical units.
time (UTC)temp
F
wind
direction
speed
MPH
gust
MPH
rain 1hr
in
rain 24hr
in
rain mn
in
humidity
%
barometer
mb
20260503203019 58 0 2.0 5.0 0.00 0.02 0.02 39 1019.4
20260503202018 58 0 3.0 10.0 0.00 0.02 0.02 39 1019.4
20260503201043 58 0 3.0 9.0 0.00 0.02 0.02 40 1019.2
20260503200040 58 0 2.0 5.0 0.00 0.02 0.02 41 1019.2
20260503195019 58 0 2.0 6.0 0.00 0.02 0.02 41 1019.2
20260503194018 59 0.0 3.0 0.00 0.02 0.02 41 1019.2
20260503193019 59 0.0 3.0 0.00 0.02 0.02 41 1019.2
20260503192020 59 0 1.0 4.0 0.00 0.02 0.02 41 1019.2
20260503191041 60 0.0 2.0 0.00 0.02 0.02 40 1019.2
20260503190018 60 0 1.0 5.0 0.00 0.02 0.02 40 1019.2
20260503185018 60 0 3.0 6.0 0.00 0.02 0.02 39 1019.2
20260503184040 61 0 1.0 5.0 0.00 0.02 0.02 39 1019.0
20260503183018 61 0 2.0 5.0 0.00 0.02 0.02 37 1018.7
20260503182020 61 0 2.0 9.0 0.00 0.02 0.02 37 1018.5
20260503181018 62 0 2.0 8.0 0.00 0.02 0.02 36 1018.3
20260503180018 62 0 2.0 5.0 0.00 0.02 0.02 36 1018.2
20260503175019 63 0 2.0 4.0 0.00 0.02 0.02 36 1018.3
20260503174018 63 0 1.0 4.0 0.00 0.02 0.02 36 1018.2
20260503173018 64 0 1.0 2.0 0.00 0.02 0.02 36 1018.2
20260503172020 64 0 1.0 2.0 0.00 0.02 0.02 35 1018.0
20260503171020 65 0 1.0 4.0 0.00 0.02 0.02 34 1017.9
20260503131019 62 0 2.0 6.0 0.00 0.03 0.02 41 1018.3
20260503081019 59 0 1.0 4.0 0.00 0.03 0.02 50 1019.9
20260503072019 56 0 1.0 5.0 0.00 0.03 0.02 69 1020.0
20260503071019 55 0 2.0 6.0 0.00 0.03 0.02 70 1019.8
20260503055019 51 0 3.0 4.0 0.02 0.03 0.02 75 1019.5
20260503054019 50 0 3.0 5.0 0.02 0.03 0.02 75 1019.5
20260503053020 50 0 5.0 8.0 0.02 0.03 0.02 75 1019.6
20260503052018 51 0 5.0 8.0 0.02 0.03 0.02 74 1019.6
20260503051020 51 0 6.0 10.0 0.02 0.02 0.02 73 1019.5
20260503050019 52 0 2.0 8.0 0.00 0.01 0.00 71 1019.1
20260503045041 52 0 4.0 10.0 0.00 0.01 0.00 71 1018.8
20260503044018 52 0 2.0 6.0 0.00 0.01 0.00 70 1018.8
20260503043019 52 0 1.0 4.0 0.00 0.01 0.00 69 1018.6
20260503042020 52 0 2.0 5.0 0.00 0.01 0.00 68 1018.7
20260503041041 52 0 1.0 3.0 0.00 0.01 0.00 68 1018.7
20260503040020 52 0 3.0 4.0 0.00 0.01 0.00 69 1018.6
20260503035020 51 0 3.0 5.0 0.00 0.01 0.00 70 1018.5
20260503034042 51 0.0 0.0 0.00 0.01 0.00 70 1018.4
20260503033021 51 0.0 0.0 0.00 0.01 0.00 70 1018.2
20260503032019 50 0 1.0 2.0 0.00 0.01 0.00 70 1018.1
20260503031019 51 0 1.0 3.0 0.00 0.01 0.00 69 1018.1
20260503030019 51 0 2.0 5.0 0.00 0.01 0.00 67 1018.1
20260503025020 51 0 1.0 5.0 0.00 0.01 0.00 67 1018.2
20260503024020 52 0 2.0 5.0 0.00 0.01 0.00 67 1018.3
20260503023018 52 0 1.0 3.0 0.00 0.01 0.00 67 1018.4
20260503022018 52 0 3.0 6.0 0.00 0.01 0.00 68 1018.4
20260503021042 52 0 2.0 4.0 0.00 0.01 0.00 68 1018.4
20260503020018 52 0 1.0 2.0 0.00 0.01 0.00 68 1018.2
20260503015018 52 0 1.0 3.0 0.00 0.01 0.00 68 1018.1
20260503014018 53 0 2.0 5.0 0.00 0.01 0.00 69 1018.0
20260503013018 52 0 2.0 4.0 0.00 0.01 0.00 70 1018.3
20260503012018 52 0 3.0 4.0 0.00 0.01 0.00 70 1018.4
20260503011041 51 0.0 2.0 0.00 0.01 0.00 70 1018.4
20260503010018 52 0 1.0 3.0 0.00 0.01 0.00 70 1018.4
20260503005041 52 0.0 1.0 0.00 0.01 0.00 71 1018.4
20260503004019 52 0.0 1.0 0.00 0.01 0.00 70 1018.5
20260503003018 52 0.0 0.0 0.00 0.01 0.00 70 1018.6
20260503002019 52 0.0 1.0 0.00 0.01 0.00 69 1018.7
20260503001020 53 0.0 2.0 0.00 0.01 0.00 67 1018.8
20260503000019 53 0 1.0 3.0 0.00 0.01 0.00 66 1018.8
20260502235018 53 0 2.0 5.0 0.00 0.01 0.00 66 1018.9
20260502234018 53 0 1.0 4.0 0.00 0.01 0.00 66 1019.0
20260502233018 53 0 2.0 5.0 0.00 0.01 0.00 66 1019.1
20260502232019 52 0 3.0 9.0 0.00 0.01 0.00 68 1019.2
20260502231018 52 0 2.0 5.0 0.00 0.01 0.00 68 1019.2
20260502230019 52 0 2.0 8.0 0.00 0.01 0.00 69 1019.2
20260502225018 52 0 3.0 9.0 0.00 0.01 0.00 70 1019.4
20260502224019 52 0 3.0 10.0 0.00 0.01 0.00 70 1019.7
20260502223040 52 0 4.0 9.0 0.00 0.01 0.00 71 1019.3
20260502222018 52 0 4.0 13.0 0.00 0.01 0.00 73 1019.6
20260502221042 53 0 2.0 9.0 0.00 0.01 0.00 73 1020.1
20260502220017 53 0 3.0 9.0 0.00 0.01 0.00 72 1020.2
20260502215018 54 0 3.0 10.0 0.00 0.02 0.00 71 1020.0
20260502214017 54 0 3.0 11.0 0.00 0.05 0.00 71 1020.0
20260502213017 54 0.0 0.0 0.00 0.06 0.00 71 1020.0
20260502212040 54 0.0 0.0 0.00 0.06 0.00 71 1019.8
20260502211102 54 0.0 1.0 0.00 0.07 0.00 70 1019.9
20260502210019 54 0.0 2.0 0.00 0.07 0.07 70 1020.1
20260502205018 54 0.0 2.0 0.00 0.07 0.07 70 1020.1
20260502204018 54 0 1.0 2.0 0.00 0.07 0.07 69 1020.3